Time,TemperatureF,DewpointF,PressureIn,WindDirection,WindDirectionDegrees,WindSpeedMPH,WindSpeedGustMPH,Humidity,HourlyPrecipIn,Conditions,Clouds,dailyrainin,SoftwareType,DateUTC
2013-01-07 00:02:00,21.0,18.0,30.09,South,172,6.0,17.0,87,0.00,,,0.00,,2013-01-07 06:02:00,
2013-01-07 00:12:00,21.0,18.0,30.09,South,172,6.0,17.0,87,0.00,,,0.00,,2013-01-07 06:12:00,
2013-01-07 00:22:00,21.0,17.0,30.08,SSW,193,6.0,12.0,86,0.00,,,0.00,,2013-01-07 06:22:00,
2013-01-07 00:32:00,22.0,18.0,30.07,SSE,161,6.0,14.0,86,0.00,,,0.00,,2013-01-07 06:32:00,
2013-01-07 00:42:00,22.0,18.0,30.07,SSE,161,6.0,14.0,86,0.00,,,0.00,,2013-01-07 06:42:00,
2013-01-07 00:52:00,23.0,19.0,30.06,SSE,151,7.0,17.0,86,0.00,,,0.00,,2013-01-07 06:52:00,
2013-01-07 01:02:00,23.0,19.0,30.05,SSE,148,5.0,12.0,84,0.00,,,0.00,,2013-01-07 07:02:00,
2013-01-07 01:12:00,23.0,19.0,30.05,SSE,148,5.0,12.0,84,0.00,,,0.00,,2013-01-07 07:12:00,
2013-01-07 01:22:00,23.0,19.0,30.04,South,169,6.0,15.0,85,0.00,,,0.00,,2013-01-07 07:22:00,
2013-01-07 01:33:00,24.0,20.0,30.02,ESE,116,7.0,17.0,86,0.00,,,0.00,,2013-01-07 07:33:00,
2013-01-07 01:42:00,24.0,20.0,30.02,ESE,116,7.0,17.0,86,0.00,,,0.00,,2013-01-07 07:42:00,
2013-01-07 01:53:00,24.0,20.0,30.01,South,186,7.0,14.0,85,0.00,,,0.00,,2013-01-07 07:53:00,
2013-01-07 02:03:00,25.0,21.0,30.01,SSE,150,7.0,17.0,84,0.00,,,0.00,,2013-01-07 08:03:00,
2013-01-07 02:12:00,25.0,21.0,30.01,SSE,150,7.0,17.0,84,0.00,,,0.00,,2013-01-07 08:12:00,
2013-01-07 02:22:00,25.0,21.0,30.02,South,190,7.0,16.0,83,0.00,,,0.00,,2013-01-07 08:22:00,
2013-01-07 02:32:00,26.0,22.0,30.02,SSE,157,6.0,15.0,84,0.00,,,0.00,,2013-01-07 08:32:00,
2013-01-07 02:42:00,26.0,22.0,30.02,SSE,157,6.0,15.0,84,0.00,,,0.00,,2013-01-07 08:42:00,
2013-01-07 02:53:00,27.0,22.0,30.03,South,179,8.0,18.0,82,0.00,,,0.00,,2013-01-07 08:53:00,
2013-01-07 03:02:00,27.0,22.0,30.03,SSW,197,6.0,18.0,82,0.00,,,0.00,,2013-01-07 09:02:00,
2013-01-07 03:12:00,27.0,22.0,30.03,SSW,197,6.0,18.0,82,0.00,,,0.00,,2013-01-07 09:12:00,
2013-01-07 03:22:00,27.0,23.0,30.03,SSE,150,7.0,14.0,83,0.00,,,0.00,,2013-01-07 09:22:00,
2013-01-07 03:32:00,27.0,23.0,30.02,SSE,153,4.0,14.0,83,0.00,,,0.00,,2013-01-07 09:32:00,
2013-01-07 03:42:00,27.0,23.0,30.02,SSE,153,4.0,14.0,83,0.00,,,0.00,,2013-01-07 09:42:00,
2013-01-07 03:52:00,27.0,23.0,30.01,SSE,158,8.0,17.0,83,0.00,,,0.00,,2013-01-07 09:52:00,
2013-01-07 04:02:00,27.0,22.0,29.99,SSW,193,9.0,19.0,82,0.00,,,0.00,,2013-01-07 10:02:00,
2013-01-07 04:12:00,27.0,22.0,29.99,SSW,193,9.0,19.0,82,0.00,,,0.00,,2013-01-07 10:12:00,
2013-01-07 04:22:00,27.0,22.0,29.99,SSW,201,9.0,16.0,82,0.00,,,0.00,,2013-01-07 10:22:00,
2013-01-07 04:32:00,26.0,22.0,29.99,SSW,211,6.0,17.0,83,0.00,,,0.00,,2013-01-07 10:32:00,
2013-01-07 04:42:00,26.0,22.0,29.99,SSW,211,6.0,17.0,83,0.00,,,0.00,,2013-01-07 10:42:00,
2013-01-07 04:52:00,26.0,22.0,29.98,SSW,196,6.0,12.0,84,0.00,,,0.00,,2013-01-07 10:52:00,
2013-01-07 05:02:00,26.0,22.0,29.97,East,96,6.0,11.0,84,0.00,,,0.00,,2013-01-07 11:02:00,
2013-01-07 05:12:00,26.0,22.0,29.97,East,96,6.0,11.0,84,0.00,,,0.00,,2013-01-07 11:12:00,
2013-01-07 05:22:00,26.0,22.0,29.96,SSW,205,5.0,14.0,83,0.00,,,0.00,,2013-01-07 11:22:00,
2013-01-07 05:32:00,26.0,22.0,29.96,South,189,8.0,18.0,83,0.00,,,0.00,,2013-01-07 11:32:00,
2013-01-07 05:43:00,26.0,22.0,29.96,South,189,8.0,18.0,83,0.00,,,0.00,,2013-01-07 11:43:00,
2013-01-07 05:53:00,26.0,22.0,29.96,SSW,207,8.0,16.0,83,0.00,,,0.00,,2013-01-07 11:53:00,
2013-01-07 06:03:00,26.0,22.0,29.96,SSW,194,6.0,19.0,84,0.00,,,0.00,,2013-01-07 12:03:00,
2013-01-07 06:12:00,26.0,22.0,29.97,SW,225,8.0,17.0,84,0.00,,,0.00,,2013-01-07 12:12:00,
2013-01-07 06:22:00,26.0,22.0,29.97,SW,225,8.0,17.0,84,0.00,,,0.00,,2013-01-07 12:22:00,
2013-01-07 06:32:00,26.0,22.0,29.98,SW,222,7.0,13.0,84,0.00,,,0.00,,2013-01-07 12:32:00,
2013-01-07 06:43:00,26.0,22.0,29.98,SW,222,7.0,13.0,84,0.00,,,0.00,,2013-01-07 12:43:00,
2013-01-07 06:53:00,26.0,22.0,29.99,SW,227,3.0,12.0,84,0.00,,,0.00,,2013-01-07 12:53:00,
2013-01-07 07:02:00,26.0,22.0,29.98,South,183,4.0,10.0,84,0.00,,,0.00,,2013-01-07 13:02:00,
2013-01-07 07:12:00,26.0,22.0,29.98,South,183,4.0,10.0,84,0.00,,,0.00,,2013-01-07 13:12:00,
2013-01-07 07:23:00,25.0,21.0,29.98,SSW,205,4.0,9.0,84,0.00,,,0.00,,2013-01-07 13:23:00,
2013-01-07 07:33:00,24.0,20.0,29.99,SSW,192,4.0,9.0,85,0.00,,,0.00,,2013-01-07 13:33:00,
2013-01-07 07:42:00,24.0,20.0,29.99,SSW,192,4.0,9.0,85,0.00,,,0.00,,2013-01-07 13:42:00,
2013-01-07 07:53:00,24.0,20.0,29.99,South,182,3.0,7.0,86,0.00,,,0.00,,2013-01-07 13:53:00,
2013-01-07 08:03:00,24.0,20.0,29.99,SSW,197,4.0,9.0,86,0.00,,,0.00,,2013-01-07 14:03:00,
2013-01-07 08:12:00,24.0,20.0,29.99,SSW,197,4.0,9.0,86,0.00,,,0.00,,2013-01-07 14:12:00,
2013-01-07 08:22:00,24.0,20.0,29.99,SSW,197,4.0,9.0,86,0.00,,,0.00,,2013-01-07 14:22:00,
2013-01-07 08:33:00,23.0,20.0,29.99,South,187,2.0,5.0,87,0.00,,,0.00,,2013-01-07 14:33:00,
2013-01-07 08:42:00,23.0,20.0,29.99,South,187,2.0,5.0,87,0.00,,,0.00,,2013-01-07 14:42:00,
2013-01-07 08:53:00,24.0,21.0,29.99,SW,231,3.0,8.0,87,0.00,,,0.00,,2013-01-07 14:53:00,
2013-01-07 09:03:00,24.0,20.0,30.00,SSE,164,2.0,6.0,86,0.00,,,0.00,,2013-01-07 15:03:00,
2013-01-07 09:12:00,24.0,20.0,30.00,SSE,164,2.0,6.0,86,0.00,,,0.00,,2013-01-07 15:12:00,
2013-01-07 09:22:00,25.0,21.0,30.00,SSE,159,4.0,8.0,86,0.00,,,0.00,,2013-01-07 15:22:00,
2013-01-07 09:33:00,26.0,22.0,30.01,SW,236,4.0,7.0,85,0.00,,,0.00,,2013-01-07 15:33:00,
2013-01-07 09:42:00,26.0,22.0,30.01,SW,236,4.0,7.0,85,0.00,,,0.00,,2013-01-07 15:42:00,
2013-01-07 09:53:00,28.0,24.0,30.01,SSW,203,5.0,8.0,84,0.00,,,0.00,,2013-01-07 15:53:00,
2013-01-07 10:02:00,29.0,24.0,30.00,SSW,213,4.0,9.0,82,0.00,,,0.00,,2013-01-07 16:02:00,
2013-01-07 10:12:00,29.0,24.0,30.00,SSW,213,4.0,9.0,82,0.00,,,0.00,,2013-01-07 16:12:00,
2013-01-07 10:22:00,29.0,24.0,30.01,South,191,4.0,8.0,82,0.00,,,0.00,,2013-01-07 16:22:00,
2013-01-07 10:33:00,30.0,25.0,30.01,West,271,6.0,13.0,82,0.00,,,0.00,,2013-01-07 16:33:00,
2013-01-07 10:43:00,30.0,25.0,30.01,West,271,6.0,13.0,82,0.00,,,0.00,,2013-01-07 16:43:00,
2013-01-07 10:53:00,31.0,26.0,30.02,SW,219,3.0,8.0,80,0.00,,,0.00,,2013-01-07 16:53:00,
2013-01-07 11:02:00,31.0,26.0,30.02,SW,219,3.0,8.0,80,0.00,,,0.00,,2013-01-07 17:02:00,
2013-01-07 11:12:00,31.0,26.0,30.02,SW,219,3.0,8.0,80,0.00,,,0.00,,2013-01-07 17:12:00,
2013-01-07 11:23:00,32.0,27.0,30.01,SW,220,3.0,10.0,81,0.00,,,0.00,,2013-01-07 17:23:00,
2013-01-07 11:33:00,33.0,28.0,30.01,SW,220,4.0,7.0,80,0.00,,,0.00,,2013-01-07 17:33:00,
2013-01-07 11:43:00,33.0,28.0,30.01,SW,220,4.0,7.0,80,0.00,,,0.00,,2013-01-07 17:43:00,
2013-01-07 11:53:00,33.0,28.0,30.01,SW,226,3.0,8.0,80,0.00,,,0.00,,2013-01-07 17:53:00,
2013-01-07 12:03:00,34.0,28.0,30.00,WSW,248,3.0,7.0,79,0.00,,,0.00,,2013-01-07 18:03:00,
2013-01-07 12:12:00,34.0,28.0,30.00,WSW,248,3.0,7.0,79,0.00,,,0.00,,2013-01-07 18:12:00,
2013-01-07 12:23:00,34.0,28.0,29.98,SW,232,3.0,8.0,80,0.00,,,0.00,,2013-01-07 18:23:00,
2013-01-07 12:32:00,34.0,28.0,29.98,SW,229,3.0,7.0,79,0.00,,,0.00,,2013-01-07 18:32:00,
2013-01-07 12:42:00,34.0,28.0,29.98,SW,229,3.0,7.0,79,0.00,,,0.00,,2013-01-07 18:42:00,
2013-01-07 12:53:00,34.0,28.0,29.98,West,271,3.0,6.0,79,0.00,,,0.00,,2013-01-07 18:53:00,
2013-01-07 13:03:00,35.0,29.0,29.98,SW,219,1.0,7.0,78,0.00,,,0.00,,2013-01-07 19:03:00,
2013-01-07 13:12:00,35.0,29.0,29.98,SW,219,1.0,7.0,78,0.00,,,0.00,,2013-01-07 19:12:00,
2013-01-07 13:22:00,35.0,29.0,29.98,West,269,3.0,6.0,78,0.00,,,0.00,,2013-01-07 19:22:00,
2013-01-07 13:33:00,35.0,29.0,29.98,WNW,287,3.0,5.0,77,0.00,,,0.00,,2013-01-07 19:33:00,
2013-01-07 13:42:00,35.0,29.0,29.98,WNW,287,3.0,5.0,77,0.00,,,0.00,,2013-01-07 19:42:00,
2013-01-07 13:53:00,35.0,29.0,29.98,WSW,240,4.0,7.0,77,0.01,,,0.01,,2013-01-07 19:53:00,
2013-01-07 14:03:00,35.0,29.0,29.98,SSW,196,4.0,10.0,77,0.01,,,0.01,,2013-01-07 20:03:00,
2013-01-07 14:12:00,35.0,29.0,29.98,SSW,196,4.0,10.0,77,0.01,,,0.01,,2013-01-07 20:12:00,
2013-01-07 14:33:00,36.0,29.0,29.98,South,183,4.0,8.0,77,0.01,,,0.01,,2013-01-07 20:33:00,
2013-01-07 14:42:00,36.0,29.0,29.98,South,183,4.0,8.0,77,0.01,,,0.01,,2013-01-07 20:42:00,
2013-01-07 14:53:00,35.0,29.0,29.99,SSW,195,3.0,7.0,77,0.00,,,0.01,,2013-01-07 20:53:00,
2013-01-07 15:03:00,35.0,29.0,29.99,SSW,201,3.0,5.0,79,0.01,,,0.02,,2013-01-07 21:03:00,
2013-01-07 15:12:00,35.0,29.0,29.99,SSW,201,3.0,5.0,79,0.01,,,0.02,,2013-01-07 21:12:00,
2013-01-07 15:23:00,35.0,29.0,29.99,SSW,203,3.0,8.0,79,0.01,,,0.02,,2013-01-07 21:23:00,
2013-01-07 15:33:00,35.0,29.0,29.99,SSW,197,3.0,7.0,80,0.01,,,0.02,,2013-01-07 21:33:00,
2013-01-07 15:42:00,35.0,29.0,29.99,SSW,197,3.0,7.0,80,0.01,,,0.02,,2013-01-07 21:42:00,
2013-01-07 15:53:00,35.0,29.0,30.00,SSW,213,2.0,7.0,80,0.01,,,0.02,,2013-01-07 21:53:00,
2013-01-07 16:02:00,34.0,29.0,30.00,South,185,3.0,7.0,81,0.00,,,0.02,,2013-01-07 22:02:00,
2013-01-07 16:12:00,34.0,29.0,30.00,South,185,3.0,7.0,81,0.00,,,0.02,,2013-01-07 22:12:00,
2013-01-07 16:23:00,33.0,28.0,30.00,SW,223,2.0,6.0,83,0.00,,,0.02,,2013-01-07 22:23:00,
2013-01-07 16:33:00,33.0,29.0,30.00,SSW,205,2.0,4.0,85,0.00,,,0.02,,2013-01-07 22:33:00,
2013-01-07 16:42:00,33.0,29.0,30.00,SSW,205,2.0,4.0,85,0.00,,,0.02,,2013-01-07 22:42:00,
2013-01-07 16:53:00,32.0,28.0,30.01,SSW,213,2.0,5.0,86,0.00,,,0.02,,2013-01-07 22:53:00,
2013-01-07 17:02:00,32.0,29.0,30.01,SSW,200,2.0,5.0,87,0.00,,,0.02,,2013-01-07 23:02:00,
2013-01-07 17:12:00,32.0,29.0,30.01,SSW,200,2.0,5.0,87,0.00,,,0.02,,2013-01-07 23:12:00,
2013-01-07 17:22:00,31.0,28.0,30.01,SW,222,1.0,3.0,88,0.00,,,0.02,,2013-01-07 23:22:00,
2013-01-07 17:32:00,30.0,27.0,30.01,SW,222,1.0,3.0,88,0.00,,,0.02,,2013-01-07 23:32:00,
2013-01-07 17:42:00,30.0,27.0,30.01,SW,222,1.0,3.0,88,0.00,,,0.02,,2013-01-07 23:42:00,
2013-01-07 17:53:00,30.0,27.0,30.02,SW,222,0.0,3.0,89,0.00,,,0.02,,2013-01-07 23:53:00,
2013-01-07 18:02:00,29.0,26.0,30.02,SW,222,1.0,2.0,90,0.00,,,0.02,,2013-01-08 00:02:00,
2013-01-07 18:12:00,29.0,26.0,30.02,SW,222,1.0,2.0,90,0.00,,,0.02,,2013-01-08 00:12:00,
2013-01-07 18:22:00,28.0,25.0,30.02,SW,222,0.0,2.0,89,0.00,,,0.02,,2013-01-08 00:22:00,
2013-01-07 18:33:00,27.0,25.0,30.02,SW,222,0.0,2.0,91,0.00,,,0.02,,2013-01-08 00:33:00,
2013-01-07 18:42:00,27.0,25.0,30.02,SW,222,0.0,2.0,91,0.00,,,0.02,,2013-01-08 00:42:00,
2013-01-07 18:53:00,27.0,25.0,30.03,SW,222,0.0,1.0,92,0.00,,,0.02,,2013-01-08 00:53:00,
2013-01-07 19:02:00,26.0,24.0,30.03,SW,222,0.0,1.0,92,0.00,,,0.02,,2013-01-08 01:02:00,
2013-01-07 19:12:00,26.0,24.0,30.03,SW,222,0.0,1.0,92,0.00,,,0.02,,2013-01-08 01:12:00,
2013-01-07 19:22:00,26.0,24.0,30.03,SW,222,1.0,2.0,92,0.00,,,0.02,,2013-01-08 01:22:00,
2013-01-07 19:32:00,25.0,23.0,30.03,SW,222,0.0,1.0,93,0.00,,,0.02,,2013-01-08 01:32:00,
2013-01-07 19:42:00,25.0,23.0,30.03,SW,222,0.0,1.0,93,0.00,,,0.02,,2013-01-08 01:42:00,
2013-01-07 19:52:00,25.0,24.0,30.03,SW,222,0.0,1.0,94,0.00,,,0.02,,2013-01-08 01:52:00,
2013-01-07 20:02:00,25.0,23.0,30.02,SW,222,0.0,2.0,93,0.00,,,0.02,,2013-01-08 02:02:00,
2013-01-07 20:12:00,25.0,23.0,30.02,SW,222,0.0,2.0,93,0.00,,,0.02,,2013-01-08 02:12:00,
2013-01-07 20:22:00,24.0,23.0,30.02,SW,222,0.0,1.0,94,0.00,,,0.02,,2013-01-08 02:22:00,
2013-01-07 20:32:00,23.0,21.0,30.02,SW,222,1.0,3.0,93,0.00,,,0.02,,2013-01-08 02:32:00,
2013-01-07 20:42:00,23.0,21.0,30.02,SW,222,1.0,3.0,93,0.00,,,0.02,,2013-01-08 02:42:00,
2013-01-07 20:53:00,23.0,21.0,30.03,SW,222,1.0,2.0,93,0.00,,,0.02,,2013-01-08 02:53:00,
2013-01-07 21:03:00,23.0,21.0,30.03,SW,222,1.0,2.0,93,0.00,,,0.02,,2013-01-08 03:03:00,
2013-01-07 21:12:00,23.0,21.0,30.03,SW,222,1.0,2.0,93,0.00,,,0.02,,2013-01-08 03:12:00,
2013-01-07 21:22:00,22.0,20.0,30.02,SW,222,2.0,4.0,92,0.00,,,0.02,,2013-01-08 03:22:00,
2013-01-07 21:32:00,21.0,19.0,30.02,SW,222,0.0,3.0,93,0.00,,,0.02,,2013-01-08 03:32:00,
2013-01-07 21:43:00,21.0,19.0,30.02,SW,222,0.0,3.0,93,0.00,,,0.02,,2013-01-08 03:43:00,
2013-01-07 21:53:00,22.0,21.0,30.02,SW,222,1.0,3.0,94,0.00,,,0.02,,2013-01-08 03:53:00,
2013-01-07 22:02:00,22.0,20.0,30.02,SW,222,0.0,2.0,93,0.00,,,0.02,,2013-01-08 04:02:00,
2013-01-07 22:12:00,22.0,20.0,30.02,SW,222,0.0,2.0,93,0.00,,,0.02,,2013-01-08 04:12:00,
2013-01-07 22:22:00,21.0,19.0,30.02,SW,222,0.0,1.0,93,0.00,,,0.02,,2013-01-08 04:22:00,
2013-01-07 22:32:00,21.0,19.0,30.02,SW,222,1.0,2.0,93,0.00,,,0.02,,2013-01-08 04:32:00,
2013-01-07 22:42:00,21.0,19.0,30.02,SW,222,1.0,2.0,93,0.00,,,0.02,,2013-01-08 04:42:00,
2013-01-07 22:52:00,21.0,19.0,30.02,SW,222,0.0,2.0,93,0.00,,,0.02,,2013-01-08 04:52:00,
2013-01-07 23:03:00,20.0,18.0,30.02,SW,222,1.0,2.0,93,0.00,,,0.02,,2013-01-08 05:03:00,
2013-01-07 23:12:00,20.0,18.0,30.02,SW,222,1.0,2.0,93,0.00,,,0.02,,2013-01-08 05:12:00,
2013-01-07 23:22:00,19.0,17.0,30.03,SW,222,0.0,0.0,92,0.00,,,0.02,,2013-01-08 05:22:00,
2013-01-07 23:33:00,19.0,17.0,30.02,SW,222,0.0,0.0,92,0.00,,,0.02,,2013-01-08 05:33:00,
2013-01-07 23:42:00,19.0,17.0,30.02,SW,222,0.0,0.0,92,0.00,,,0.02,,2013-01-08 05:42:00,
2013-01-07 23:53:00,17.0,15.0,30.02,SW,222,0.0,1.0,92,0.00,,,0.02,,2013-01-08 05:53:00,